Temp
-16 -16 -16 -16 -16 -16 -16 -15 -15 -15 -15 -15 -15 -15 -15 -15 -15 -15 -15 -15 -15 -15 -15 -15 -15 -14 -14 -14 -14 -14 -13 -13 -13 -13 -13 -13 -13 -13 -13 -13 -13 -13
-16 -16 -16 -16 -16 -16 -16 -16 -16 -16 -16 -16 -16 -15 -15 -15 -15 -15 -15 -15 -15 -15 -15 -15 -15 -15 -15 -15 -14 -14 -14 -14 -13 -13 -13 -13 -13 -13 -13 -13 -13 -13
-17 -17 -17 -17 -16 -16 -16 -16 -16 -16 -16 -16 -16 -16 -16 -16 -16 -15 -15 -15 -15 -16 -16 -16 -16 -15 -15 -15 -15 -15 -15 -14 -14 -14 -14 -13 -13 -13 -13 -13 -13 -13
-17 -17 -17 -17 -17 -17 -17 -17 -16 -16 -16 -16 -16 -16 -16 -16 -16 -16 -16 -16 -16 -16 -16 -16 -16 -16 -16 -16 -15 -15 -15 -15 -15 -15 -14 -14 -14 -14 -13 -13 -13 -13
-17 -17 -17 -17 -17 -17 -17 -17 -17 -17 -17 -17 -16 -16 -16 -16 -16 -16 -16 -16 -16 -16 -16 -16 -16 -16 -16 -16 -16 -16 -15 -15 -15 -15 -15 -15 -15 -14 -14 -14 -14 -13
-18 -18 -18 -17 -17 -17 -17 -17 -17 -17 -17 -17 -17 -16 -16 -16 -16 -16 -16 -16 -16 -16 -16 -16 -16 -16 -16 -16 -16 -16 -16 -16 -15 -15 -15 -15 -15 -15 -15 -14 -14 -14
-18 -18 -18 -18 -17 -17 -17 -17 -17 -17 -17 -17 -17 -17 -16 -16 -16 -16 -16 -16 -16 -16 -16 -16 -16 -16 -16 -16 -16 -16 -16 -16 -16 -16 -15 -15 -15 -15 -15 -15 -15 -15
-18 -18 -18 -18 -18 -18 -17 -17 -17 -17 -17 -17 -17 -17 -17 -17 -16 -16 -16 -16 -16 -16 -16 -16 -17 -17 -17 -16 -16 -16 -16 -16 -16 -16 -16 -16 -15 -15 -15 -15 -15 -15
-18 -18 -18 -18 -18 -18 -18 -17 -17 -17 -17 -17 -17 -17 -17 -17 -17 -17 -17 -16 -16 -16 -17 -17 -17 -17 -17 -17 -17 -16 -16 -16 -16 -16 -16 -16 -16 -16 -16 -15 -15 -15
-18 -18 -18 -18 -19 -19 -18 -18 -18 -17 -17 -18 -18 -17 -17 -17 -17 -17 -17 -17 -17 -17 -17 -17 -17 -17 -17 -17 -17 -17 -17 -17 -16 -16 -16 -16 -16 -16 -16 -16 -16 -16
-19 -18 -18 -18 -19 -18 -18 -18 -18 -18 -18 -18 -18 -18 -17 -17 -17 -17 -17 -17 -17 -17 -17 -17 -17 -17 -17 -17 -17 -17 -17 -17 -17 -17 -17 -17 -17 -17 -16 -16 -16 -16
-18 -19 -19 -19 -19 -18 -18 -18 -18 -17 -17 -17 -18 -18 -18 -18 -17 -17 -17 -17 -17 -17 -17 -17 -17 -17 -17 -17 -17 -17 -17 -17 -17 -17 -17 -17 -17 -17 -17 -17 -17 -17
-18 -19 -19 -19 -19 -18 -18 -18 -18 -17 -17 -17 -17 -18 -18 -18 -18 -17 -17 -18 -18 -18 -18 -18 -17 -17 -17 -17 -17 -17 -17 -17 -17 -17 -17 -17 -17 -17 -17 -17 -17 -17
-18 -18 -19 -19 -19 -19 -18 -18 -18 -18 -18 -18 -17 -17 -18 -18 -18 -18 -18 -18 -18 -18 -18 -18 -18 -18 -18 -17 -17 -17 -18 -17 -17 -17 -17 -17 -17 -17 -18 -18 -18 -18
-19 -19 -19 -19 -19 -19 -19 -18 -18 -18 -18 -18 -18 -18 -18 -18 -18 -18 -18 -18 -18 -18 -18 -18 -18 -18 -18 -18 -18 -18 -18 -17 -17 -17 -17 -17 -18 -18 -18 -18 -18 -18
-19 -19 -19 -19 -19 -19 -19 -18 -18 -18 -18 -18 -18 -18 -18 -18 -18 -18 -18 -18 -18 -18 -18 -18 -19 -19 -19 -19 -18 -18 -18 -17 -17 -17 -17 -18 -18 -18 -18 -18 -18 -18
-19 -19 -19 -19 -19 -19 -19 -19 -19 -18 -18 -19 -19 -19 -19 -19 -19 -19 -19 -18 -18 -18 -18 -19 -19 -19 -19 -19 -18 -18 -18 -18 -18 -18 -18 -18 -18 -18 -18 -18 -18 -18
-19 -19 -19 -19 -19 -19 -19 -19 -19 -19 -19 -19 -19 -19 -19 -19 -19 -19 -19 -19 -19 -18 -19 -19 -19 -19 -19 -19 -19 -18 -18 -18 -18 -18 -18 -18 -18 -18 -18 -18 -18 -18
-19 -19 -20 -19 -19 -20 -20 -20 -20 -20 -19 -19 -19 -19 -19 -19 -19 -19 -19 -19 -19 -19 -19 -19 -19 -19 -19 -19 -19 -19 -19 -18 -18 -18 -18 -18 -18 -18 -18 -18 -18 -18
-19 -20 -20 -20 -20 -20 -20 -20 -20 -20 -20 -20 -20 -20 -19 -19 -19 -19 -19 -19 -19 -19 -19 -19 -19 -19 -19 -19 -19 -19 -19 -19 -19 -19 -19 -19 -19 -19 -19 -19 -18 -19
-19 -20 -20 -20 -20 -20 -20 -20 -20 -20 -19 -19 -19 -20 -20 -19 -19 -19 -19 -19 -19 -19 -19 -19 -19 -19 -19 -19 -19 -19 -19 -19 -19 -19 -19 -19 -19 -19 -19 -19 -19 -19
-20 -20 -20 -20 -20 -20 -20 -20 -20 -20 -19 -19 -19 -20 -20 -20 -19 -19 -19 -19 -19 -19 -20 -20 -19 -19 -19 -19 -19 -19 -19 -19 -19 -19 -19 -19 -19 -19 -19 -19 -19 -19
-20 -20 -21 -21 -20 -20 -20 -20 -20 -20 -20 -20 -20 -20 -20 -20 -20 -20 -20 -20 -20 -20 -20 -20 -20 -20 -19 -19 -19 -19 -19 -19 -19 -19 -19 -19 -19 -19 -19 -19 -19 -19
-20 -21 -21 -21 -21 -20 -19 -19 -20 -20 -20 -20 -20 -20 -20 -20 -20 -20 -20 -20 -20 -20 -20 -20 -20 -20 -20 -20 -19 -19 -19 -19 -19 -19 -19 -19 -19 -19 -19 -19 -19 -19
-20 -21 -21 -21 -20 -20 -19 -19 -20 -20 -20 -21 -21 -20 -20 -20 -20 -20 -20 -20 -20 -20 -20 -20 -20 -20 -20 -20 -19 -20 -20 -20 -20 -19 -19 -19 -19 -19 -19 -19 -19 -19
-21 -21 -21 -21 -21 -20 -20 -20 -20 -20 -21 -21 -21 -21 -21 -20 -20 -20 -20 -20 -20 -20 -20 -20 -20 -20 -20 -20 -20 -20 -20 -20 -20 -20 -19 -19 -19 -19 -19 -19 -18 -19
Height
5724 5724 5725 5725 5726 5727 5727 5727 5727 5727 5728 5728 5728 5729 5729 5730 5731 5731 5732 5732 5733 5734 5735 5736 5737 5738 5739 5739 5740 5741 5741 5742 5743 5744 5745 5746 5747 5748 5749 5749 5750 5750
5721 5721 5722 5722 5723 5723 5724 5724 5725 5725 5725 5725 5725 5726 5726 5727 5728 5729 5729 5730 5730 5731 5732 5732 5733 5734 5735 5736 5736 5737 5738 5738 5739 5740 5741 5742 5743 5744 5745 5745 5746 5747
5718 5718 5719 5719 5719 5720 5720 5721 5721 5722 5722 5723 5723 5723 5723 5724 5724 5725 5726 5727 5728 5728 5729 5730 5730 5731 5731 5732 5733 5734 5734 5735 5736 5736 5737 5737 5738 5739 5740 5741 5742 5742
5715 5715 5715 5715 5716 5716 5716 5717 5717 5718 5719 5720 5720 5720 5720 5721 5721 5722 5722 5723 5724 5725 5725 5726 5726 5727 5728 5728 5729 5730 5730 5731 5732 5733 5734 5734 5734 5735 5735 5736 5737 5737
5711 5711 5711 5712 5712 5712 5712 5712 5713 5714 5715 5716 5717 5717 5717 5718 5718 5718 5719 5719 5720 5721 5721 5722 5722 5723 5723 5724 5725 5726 5726 5727 5728 5729 5730 5730 5731 5731 5732 5732 5732 5732
5707 5707 5708 5708 5708 5709 5709 5709 5709 5710 5711 5712 5712 5713 5714 5714 5714 5714 5715 5715 5716 5717 5717 5718 5718 5719 5719 5719 5720 5721 5722 5722 5723 5724 5724 5725 5726 5727 5728 5728 5728 5728
5704 5704 5704 5704 5705 5705 5705 5705 5705 5705 5706 5707 5708 5709 5709 5710 5710 5711 5711 5712 5712 5712 5713 5713 5714 5714 5714 5715 5715 5716 5716 5717 5718 5718 5719 5719 5720 5721 5722 5723 5723 5723
5701 5700 5700 5700 5700 5700 5700 5700 5701 5701 5702 5702 5703 5704 5705 5705 5706 5707 5707 5708 5708 5708 5709 5709 5709 5710 5710 5710 5711 5711 5712 5712 5712 5713 5713 5713 5714 5715 5716 5716 5717 5717
5697 5696 5696 5696 5696 5696 5696 5696 5696 5697 5697 5698 5698 5699 5700 5701 5701 5702 5703 5703 5704 5704 5704 5704 5704 5705 5705 5705 5706 5706 5707 5707 5707 5708 5708 5708 5708 5708 5709 5709 5710 5711
5693 5693 5692 5692 5691 5691 5691 5691 5692 5693 5693 5694 5694 5695 5695 5696 5696 5697 5698 5698 5699 5699 5699 5700 5700 5700 5700 5700 5701 5701 5701 5702 5702 5702 5702 5703 5703 5703 5703 5703 5703 5704
5690 5689 5688 5687 5687 5686 5686 5686 5687 5688 5689 5689 5690 5691 5691 5691 5691 5692 5693 5693 5694 5694 5694 5695 5695 5695 5695 5695 5695 5696 5696 5696 5696 5696 5696 5697 5697 5697 5697 5697 5697 5697
5686 5686 5684 5683 5682 5682 5682 5682 5682 5683 5685 5685 5686 5686 5687 5687 5687 5687 5688 5688 5688 5689 5689 5689 5689 5690 5690 5690 5690 5690 5690 5690 5691 5691 5691 5691 5691 5691 5691 5691 5691 5691
5682 5682 5681 5679 5678 5679 5678 5678 5678 5680 5681 5682 5682 5682 5683 5683 5683 5683 5683 5683 5683 5683 5684 5684 5684 5684 5684 5685 5685 5685 5685 5685 5685 5685 5686 5686 5686 5686 5685 5685 5685 5684
5678 5677 5676 5675 5675 5674 5674 5674 5674 5676 5677 5678 5678 5678 5678 5679 5679 5679 5679 5678 5678 5679 5679 5679 5679 5679 5679 5679 5679 5680 5679 5680 5680 5680 5680 5680 5680 5680 5680 5679 5679 5678
5673 5672 5671 5670 5670 5670 5669 5669 5670 5671 5672 5673 5674 5674 5674 5674 5675 5674 5674 5674 5674 5674 5674 5674 5674 5674 5674 5674 5674 5674 5674 5674 5674 5674 5674 5675 5675 5675 5674 5674 5673 5672
5667 5667 5666 5664 5664 5664 5664 5664 5665 5666 5666 5667 5669 5669 5669 5669 5670 5669 5669 5670 5669 5669 5669 5669 5669 5669 5669 5669 5668 5668 5668 5668 5669 5669 5668 5668 5668 5668 5668 5668 5667 5666
5660 5661 5661 5658 5657 5657 5657 5658 5660 5660 5661 5662 5663 5663 5664 5664 5664 5664 5664 5664 5664 5665 5665 5665 5665 5664 5664 5663 5663 5663 5663 5662 5663 5663 5662 5662 5662 5661 5661 5661 5660 5659
5653 5653 5654 5652 5651 5651 5651 5652 5653 5654 5654 5655 5656 5657 5657 5658 5658 5658 5658 5659 5659 5660 5660 5660 5659 5659 5658 5658 5658 5657 5657 5657 5657 5656 5656 5655 5654 5654 5653 5653 5653 5652
5645 5645 5646 5646 5646 5646 5645 5645 5647 5648 5648 5648 5649 5650 5651 5651 5652 5652 5652 5653 5654 5654 5654 5654 5653 5653 5653 5652 5652 5652 5651 5651 5651 5650 5650 5649 5648 5647 5646 5645 5644 5644
5637 5638 5639 5640 5641 5641 5640 5639 5641 5642 5642 5642 5643 5644 5644 5645 5645 5645 5645 5646 5647 5648 5648 5648 5647 5647 5647 5646 5646 5646 5645 5645 5645 5644 5643 5642 5641 5640 5638 5637 5636 5635
5630 5632 5633 5634 5634 5634 5634 5633 5634 5635 5636 5636 5636 5637 5638 5639 5639 5640 5639 5640 5641 5641 5641 5640 5640 5640 5640 5640 5640 5640 5640 5639 5639 5638 5637 5636 5634 5633 5631 5630 5629 5627
5622 5624 5625 5626 5626 5626 5627 5627 5627 5627 5628 5629 5629 5630 5631 5633 5634 5634 5634 5634 5635 5635 5634 5633 5633 5633 5634 5634 5634 5634 5634 5633 5632 5631 5630 5629 5627 5626 5624 5623 5621 5619
5614 5615 5616 5618 5619 5620 5620 5620 5620 5620 5620 5621 5622 5623 5625 5627 5628 5628 5629 5629 5628 5628 5627 5627 5627 5627 5628 5628 5628 5627 5627 5626 5626 5625 5623 5621 5620 5618 5617 5615 5613 5611
5606 5607 5607 5610 5613 5615 5613 5611 5610 5612 5614 5615 5616 5618 5619 5620 5621 5621 5622 5622 5621 5620 5620 5621 5621 5622 5622 5622 5621 5620 5620 5619 5618 5617 5616 5614 5612 5611 5609 5607 5605 5602
5599 5600 5601 5604 5607 5609 5608 5605 5604 5606 5610 5611 5611 5612 5613 5614 5615 5615 5615 5616 5615 5614 5615 5616 5616 5616 5615 5615 5614 5613 5612 5612 5610 5609 5608 5606 5604 5603 5601 5598 5596 5593
5592 5594 5596 5598 5601 5602 5602 5601 5601 5602 5604 5604 5605 5606 5607 5608 5609 5609 5609 5609 5609 5609 5610 5610 5610 5610 5608 5607 5607 5606 5605 5603 5602 5600 5598 5597 5595 5594 5592 5590 5586 5582
Wind_Speed
22 22 22 22 22 23 24 25 25 24 24 23 24 23 23 22 22 22 22 22 22 21 21 21 21 22 23 24 25 27 28 29 29 29 29 28 28 29 29 30 30 30
24 24 23 23 23 23 24 24 24 24 23 23 23 23 23 23 22 22 22 22 21 21 21 21 22 22 23 24 25 26 27 29 30 31 31 31 30 29 30 30 31 31
27 26 25 25 25 24 24 24 24 24 23 23 23 23 23 23 23 23 23 23 23 23 23 23 23 24 25 25 26 27 28 29 30 31 32 33 33 33 32 32 32 32
30 29 28 27 27 26 25 25 25 25 24 24 24 25 25 25 25 25 25 25 25 25 25 25 25 26 26 27 27 28 29 30 31 32 33 34 35 36 36 36 36 36
29 30 30 30 30 28 28 27 27 27 26 27 27 27 28 28 28 28 27 27 27 27 27 27 27 28 28 28 29 29 30 31 32 33 34 35 36 37 38 39 40 41
25 27 28 29 30 31 31 31 30 29 29 29 29 30 30 31 31 31 30 30 29 29 29 29 30 30 30 31 31 32 32 32 33 34 35 36 36 37 38 40 41 43
23 24 25 27 28 29 30 31 32 32 32 32 32 32 33 33 33 33 33 33 32 32 31 31 31 31 32 32 33 33 34 34 35 36 37 37 38 38 39 40 41 42
26 26 26 27 28 29 30 30 31 31 32 33 33 34 34 34 34 34 35 35 35 34 33 32 32 32 33 33 34 34 35 36 36 37 38 39 40 41 41 42 42 43
32 30 29 29 30 31 32 32 31 30 30 31 33 34 34 35 35 35 35 35 35 35 34 34 33 33 34 35 35 36 37 37 38 39 40 40 41 42 43 44 45 45
36 34 32 31 31 33 35 35 34 33 32 32 32 32 33 33 33 33 34 34 34 34 34 34 35 35 35 36 36 37 37 38 39 39 40 41 42 43 44 45 46 47
38 37 36 35 34 35 36 37 37 36 35 34 33 33 34 34 33 32 32 32 33 34 34 34 35 35 36 36 36 36 36 37 37 38 39 39 40 41 42 43 44 45
39 39 40 41 40 38 37 39 39 38 36 35 35 36 36 36 35 33 32 33 33 34 34 34 34 34 35 35 35 34 34 35 35 36 36 37 38 39 40 41 42 43
41 42 43 45 45 42 40 41 41 41 40 38 37 38 39 38 37 35 34 34 34 34 33 33 33 33 33 33 32 32 32 32 33 34 35 36 37 38 39 40 41 42
44 46 47 47 48 46 43 42 42 43 44 43 41 40 41 40 40 39 37 37 36 35 34 33 33 32 32 32 31 31 31 32 33 34 35 36 37 38 39 40 41 42
44 45 47 49 49 49 48 46 46 46 46 44 42 41 41 41 42 42 42 40 39 37 36 35 34 33 32 32 32 31 32 33 34 36 37 38 39 39 40 41 42 43
48 48 48 50 51 51 51 50 48 47 45 43 41 40 40 42 43 44 45 44 42 40 39 38 36 35 35 35 34 33 33 34 36 38 40 40 41 42 43 44 45 46
51 50 49 52 54 52 51 49 47 46 44 44 44 43 42 42 43 44 46 47 46 44 42 40 39 38 38 38 37 36 36 37 38 40 41 42 43 44 45 46 47 49
52 51 49 50 52 52 51 49 46 46 45 47 49 48 45 44 43 45 47 48 48 47 45 43 42 41 41 40 40 40 39 39 40 41 42 43 45 46 47 47 49 50
53 53 51 49 47 46 46 45 44 45 45 46 48 47 45 44 44 46 48 49 49 49 47 45 44 44 44 44 44 43 42 42 42 42 43 45 46 47 48 49 50 52
56 55 55 53 51 50 51 50 49 49 49 49 50 50 48 47 45 46 47 48 49 50 49 47 46 46 46 47 46 45 45 44 44 45 45 46 47 49 50 52 53 55
59 58 57 56 55 57 60 62 60 57 55 54 54 54 53 52 50 47 44 44 48 50 50 49 48 48 48 49 48 48 47 47 47 48 47 48 49 51 52 54 56 57
62 61 59 58 55 55 56 57 57 57 56 55 56 57 54 53 52 48 43 42 45 50 50 50 50 49 49 50 50 49 49 50 50 50 49 50 51 53 55 56 58 60
63 62 61 59 56 54 55 55 54 54 52 50 52 53 50 49 49 48 46 46 48 50 50 50 50 49 50 50 51 51 52 52 52 51 51 52 53 55 57 59 60 62
62 62 61 58 53 53 57 58 58 54 46 40 40 42 41 42 44 45 46 47 47 48 49 49 49 49 50 51 52 53 54 54 53 53 53 54 55 58 60 61 62 65
60 59 58 55 51 53 55 55 54 50 43 39 41 43 43 42 41 41 43 43 44 46 47 47 48 49 50 52 53 55 55 54 54 54 54 56 58 59 61 63 65 68
59 56 53 49 48 51 53 52 51 48 45 46 47 47 47 47 44 43 43 42 41 42 43 45 48 49 51 53 54 54 54 54 55 56 57 59 60 61 63 65 68 69
Wind_Direction
255 254 254 255 255 255 254 254 255 256 258 259 259 260 260 260 261 263 265 266 267 267 266 264 262 261 259 258 257 257 257 257 257 257 257 256 255 255 256 257 257 256
254 254 253 252 252 252 253 253 253 254 256 258 259 260 260 260 259 259 259 260 261 262 263 264 264 263 263 262 261 260 259 259 258 258 259 259 259 258 257 257 258 258
255 255 254 253 251 251 251 251 250 251 252 255 257 259 260 261 260 259 259 258 258 258 258 259 260 261 262 262 262 262 262 262 261 261 260 260 261 261 260 259 259 259
259 257 256 255 253 252 251 251 251 250 250 251 253 256 257 258 259 259 259 259 259 260 260 261 261 261 262 262 262 262 262 262 262 262 262 262 262 263 263 263 263 263
263 262 261 260 258 257 255 254 254 253 252 251 251 251 253 254 255 256 257 258 259 259 260 261 262 263 263 264 264 263 263 263 262 262 261 261 262 262 263 264 265 266
268 267 266 264 262 261 260 258 257 256 255 254 252 251 251 251 253 254 255 256 257 258 259 260 262 264 265 266 266 266 266 266 265 264 263 262 261 261 261 262 263 265
269 271 271 269 266 263 261 258 257 257 256 256 255 254 253 252 252 253 254 255 256 257 259 260 262 263 265 266 267 268 268 268 268 267 266 265 264 263 262 261 262 262
267 269 270 269 268 266 262 259 257 257 257 257 256 256 255 254 254 254 255 255 256 257 259 260 261 262 263 264 266 267 268 268 269 269 269 269 268 266 265 263 262 262
267 269 269 268 268 266 264 262 260 260 260 259 258 257 256 255 254 254 255 255 255 256 258 259 261 262 263 264 265 267 268 269 269 270 270 271 271 270 269 267 266 264
267 269 271 271 269 267 265 263 262 262 263 262 261 260 258 256 255 255 255 255 256 257 259 261 263 264 265 266 267 268 269 271 271 272 273 272 272 272 272 272 271 269
266 268 272 274 272 269 267 265 264 264 264 263 262 262 263 261 257 256 257 259 261 263 265 267 267 268 268 268 269 270 271 272 273 274 275 276 276 276 276 275 274 274
264 266 270 273 273 270 269 269 266 265 266 266 264 265 266 264 259 258 261 263 265 267 268 270 271 270 270 270 271 272 273 274 275 276 278 280 280 281 281 280 279 278
263 264 266 269 271 270 270 272 269 268 269 270 269 269 268 266 262 261 264 265 266 268 270 271 271 270 271 272 272 274 276 278 280 281 283 285 285 286 285 285 285 284
265 265 264 266 268 267 267 273 275 274 273 270 270 270 269 268 266 265 266 267 266 268 270 270 270 270 272 273 273 275 278 280 284 287 289 289 289 289 289 288 288 288
267 267 267 266 265 264 267 272 276 278 276 271 269 270 269 269 269 268 268 268 267 268 269 270 269 269 271 272 273 275 277 282 287 290 291 290 289 289 288 288 288 288
264 267 269 267 266 266 268 271 272 274 275 271 268 269 270 271 271 270 269 269 268 268 269 270 270 270 271 272 272 273 277 282 286 288 288 288 288 288 288 288 288 288
262 263 266 267 267 267 267 268 268 268 269 270 267 267 269 271 272 272 271 270 269 268 269 271 271 271 271 271 271 273 276 280 282 284 285 286 288 289 289 289 288 288
261 262 264 263 263 263 263 263 264 264 265 267 265 264 266 269 271 273 272 270 270 268 268 270 271 270 270 270 271 272 274 277 280 281 283 285 287 290 290 289 288 287
260 261 263 260 258 261 262 261 262 264 265 264 260 262 267 269 272 275 272 268 269 268 266 268 270 269 269 269 270 271 273 276 278 279 281 284 287 289 289 288 288 288
262 262 263 262 260 260 261 264 267 267 265 263 260 263 268 269 274 279 274 266 266 268 267 267 268 267 267 268 270 271 273 275 276 278 280 283 286 287 288 288 288 288
263 263 263 262 263 263 263 266 269 267 264 264 264 266 270 270 273 280 277 266 265 268 267 265 266 266 266 268 270 272 273 275 275 276 279 282 285 287 288 288 289 290
262 263 262 261 263 266 266 266 266 264 262 263 264 267 270 269 270 275 274 268 270 272 267 264 264 265 266 268 271 272 274 274 275 276 278 281 285 287 289 289 290 291
261 262 262 260 259 264 266 264 261 261 261 263 263 265 267 267 267 269 269 271 275 274 266 263 265 265 266 269 271 273 273 274 275 276 278 281 285 288 289 290 291 291
259 261 263 261 258 259 260 257 255 255 257 260 262 263 265 265 265 266 268 272 274 270 264 263 265 266 268 270 272 272 274 275 277 278 280 283 287 289 290 291 291 290
256 260 263 263 258 255 253 253 252 252 255 262 265 264 265 266 266 267 269 271 271 267 264 265 266 267 269 271 272 274 275 277 279 280 282 286 289 290 291 291 291 290
254 256 258 259 256 252 252 255 257 259 266 271 269 266 265 265 266 271 272 269 267 266 267 269 268 268 269 271 273 276 278 279 281 283 286 288 290 290 291 291 291 291